This is the latest recevied weather packets stored in our database for station/object K9APR. If no packets are shown the sender has not sent any weather packets the latest 10 day(s).
| Time | Temp. | Humidity | Pressure | Rain* | Wind** | Luminosity | Snow |
|---|---|---|---|---|---|---|---|
| 1777928181 | 18.89° C | 66% | 1005.9 hPa | 0 mm | - | - | - |
| 1777927641 | 19.44° C | 62% | 1006.5 hPa | 0 mm | - | - | - |
| 1777927102 | 20° C | 59% | 1006.4 hPa | 0 mm | - | - | - |
| 1777926560 | 19.44° C | 59% | 1005.8 hPa | 0 mm | - | - | - |
| 1777926020 | 20° C | 58% | 1006.4 hPa | 0 mm | - | - | - |
| 1777925482 | 21.11° C | 56% | 1006.4 hPa | 0 mm | - | - | - |
| 1777924940 | 20.56° C | 55% | 1006.3 hPa | 0 mm | - | - | - |
| 1777924400 | 20° C | 55% | 1006.8 hPa | 0 mm | - | - | - |
| 1777923862 | 20° C | 58% | 1007.3 hPa | 0 mm | - | - | - |
| 1777923321 | 20.56° C | 60% | 1007.4 hPa | 0 mm | - | - | - |
| 1777922781 | 20.56° C | 60% | 1007.4 hPa | 0 mm | - | - | - |
| 1777922242 | 20.56° C | 61% | 1007.4 hPa | 0 mm | - | - | - |
| 1777921701 | 20.56° C | 60% | 1007.6 hPa | 0 mm | - | - | - |
| 1777921160 | 20.56° C | 60% | 1007.6 hPa | 0 mm | - | - | - |
| 1777920620 | 20.56° C | 59% | 1007.4 hPa | 0 mm | - | - | - |
| 1777920137 | 20.56° C | 60% | 1007.2 hPa | 0 mm | - | - | - |
| 1777919001 | 20.56° C | 61% | 1007.5 hPa | 0 mm | - | - | - |
| 1777918460 | 20.56° C | 61% | 1007.3 hPa | 0 mm | - | - | - |
| 1777917921 | 20.56° C | 62% | 1007.6 hPa | 0 mm | - | - | - |
| 1777917380 | 20.56° C | 61% | 1007.6 hPa | 0 mm | - | - | - |
| 1777916841 | 20.56° C | 60% | 1007.7 hPa | 0 mm | - | - | - |
| 1777916301 | 20.56° C | 60% | 1007.5 hPa | 0 mm | - | - | - |
| 1777915761 | 21.11° C | 59% | 1007.4 hPa | 0 mm | - | - | - |
| 1777915221 | 21.11° C | 61% | 1007.4 hPa | 0 mm | - | - | - |
| 1777914680 | 20.56° C | 59% | 1007.2 hPa | 0 mm | - | - | - |
* Rain latest hour (hover to see other rain measurements)
** Current wind speed in m/s (hover to see current wind gust speed)